Skip Page Navigation
NASA JPL Caltech
NASA Logo - Jet Propulsion Laboratory + View the NASA Portal
+ Center for Near-Earth Object Studies
JPL Home Earth Solar System Stars & Galaxies Technology
JPL Solar System Dynamics
BODIES ORBITS EPHEMERIDES TOOLS PHYSICAL DATA DISCOVERY FAQ SITE MAP
IMPORTANT: The SSD Announcement email list is now available. Major changes are coming in the near future, including possible hostname and/or URL changes. To be notified of such changes, subscribe to this email list.

Please visit this page for more details.


JPL Small-Body Database Browser
Search: [ help ]  
214824 (2006 VD32)
Classification: Main-belt Asteroid          SPK-ID: 2214824
Ephemeris | Orbit Diagram | Orbital Elements | Mission Design | Physical Parameters | Discovery Circumstances | Close-Approach Data ]

[ show orbit diagram ]
Orbital Elements at Epoch 2459000.5 (2020-May-31.0) TDB
Reference: JPL 9 (heliocentric ecliptic J2000)
 Element Value Uncertainty (1-sigma)   Units 
e .03737977958327488 1.1015e-07  
a 3.032661259007312 4.5053e-08 au
q 2.919301049594881 3.5815e-07 au
i 4.240787430628066 9.3484e-06 deg
node 43.22572258762573 9.3975e-05 deg
peri 141.9999937279735 0.00013831 deg
M 57.6587776390822 9.8356e-05 deg
tp 2458691.543588411478
(2019-Jul-27.04358841)
0.00052719 TDB
period 1929.009124475059
5.28
4.2986e-05
1.177e-07
d
yr
n .1866243116387367 4.1587e-09 deg/d
Q 3.146021468419742 4.6737e-08 au
  Orbit Determination Parameters
   # obs. used (total)      165  
   data-arc span      6339 days (17.36 yr)  
   first obs. used      2001-11-21  
   last obs. used      2019-03-31  
   planetary ephem.      DE431  
   SB-pert. ephem.      SB431-N16  
   condition code      0  
   norm. resid. RMS      .62436  
   source      ORB  
   producer      Otto Matic  
   solution date      2019-Jul-14 08:47:51  

Additional Information
 Earth MOID = 1.92108 au 
 Jupiter MOID = 1.8106 au 
 T_jup = 3.237 
[ show covariance matrix ]

Ephemeris | Orbit Diagram | Orbital Elements | Mission Design | Physical Parameters | Discovery Circumstances | Close-Approach Data ]

Physical Parameter Table
Parameter Symbol Value Units Sigma Reference Notes
absolute magnitude H 15.9   n/a MPO470306  

214824 (2006 VD32)          Discovered 2006-Nov-11 by Mt. Lemmon Survey at Mount Lemmon
Reference: 20090509/Numbers.arcLast Updated: 2009-05-11

[ show close-approach data ]
Ephemeris | Orbit Diagram | Orbital Elements | Mission Design | Physical Parameters | Discovery Circumstances | Close-Approach Data ]
ABOUT SSD CREDITS/AWARDS PRIVACY/COPYRIGHT GLOSSARY LINKS
FirstGov 2020-Mar-31 17:17 UT
(server date/time)  
NASA Home Page
Site Manager:   Ryan S. Park
Webmaster  Alan B. Chamberlin